This demonstration page uses our WeatherBlox Daily Observations layout. Learn more.

Left ArrowRight Arrow

39.51506, -84.39828

Hourly Observations for November 21, 2021

Temp ( °F °C ) Dew Point ( °F °C ) Humidity (%) Winds ( mph kmh ) Pressure ( in mb ) Visibility ( mi km ) Precip ( " mm )
12:15 am 00:15 Clear 31 -0.8 29 -1.5 95 95 Calm 30.28 1025 10 16 0.00 0.00
12:35 am 00:35 Clear 31 -0.6 30 -1.2 96 96 Calm 30.28 1025 10 16 0.00 0.00
12:55 am 00:55 Clear 30 -0.9 29 -1.7 94 94 Calm 30.28 1025 10 16 0.00 0.00
1:15 am 01:15 Clear 31 -0.7 29 -1.5 94 94 Calm 30.27 1025 10 16 0.00 0.00
1:35 am 01:35 Clear 31 -0.5 30 -1.2 95 95 Calm 30.27 1025 10 16 0.00 0.00
1:55 am 01:55 Clear 31 -0.7 29 -1.4 95 95 Calm 30.27 1025 10 16 0.00 0.00
2:15 am 02:15 Clear 31 -0.8 30 -1.3 96 96 Calm 30.27 1025 10 16 0.00 0.00
2:35 am 02:35 Clear 30 -0.9 30 -1.2 98 98 Calm 30.27 1025 10 16 0.00 0.00
2:55 am 02:55 Clear 31 -0.4 31 -0.7 98 98 Calm 30.27 1025 10 16 0.00 0.00
3:15 am 03:15 Partly Cloudy 33 0.4 32 -0.2 96 96 Calm 30.25 1025 10 16 0.00 0.00
3:35 am 03:35 Mostly Cloudy 33 0.7 33 0.3 97 97 Calm 30.25 1024 10 16 0.00 0.00
3:55 am 03:55 Cloudy 35 1.4 33 0.8 96 96 Calm 30.25 1024 10 16 0.00 0.00
4:15 am 04:15 Cloudy 35 1.9 34 1.3 96 96 Calm 30.24 1024 10 16 0.00 0.00
4:35 am 04:35 Cloudy with Drizzle 36 2.2 34 1.3 94 94 Calm 30.24 1024 10 16 0.00 0.00
4:55 am 04:55 Cloudy with Drizzle 36 2.3 35 1.6 95 95 Calm 30.24 1024 10 16 0.00 0.00
5:15 am 05:15 Cloudy with Drizzle 37 2.5 35 1.8 95 95 Calm 30.24 1024 10 16 0.00 0.00
5:35 am 05:35 Cloudy with Light Rain 37 2.8 36 2.2 96 96 Calm 30.23 1024 7 11 0.00 0.00
5:55 am 05:55 Cloudy with Light Rain 37 2.9 36 2.4 97 97 Calm 30.24 1024 7 11 0.01 0.25
6:15 am 06:15 Cloudy with Light Rain 38 3.4 38 3.1 98 98 Calm 30.24 1024 5 8 0.01 0.25
6:35 am 06:35 Cloudy with Light Rain 39 3.7 38 3.5 99 99 Calm 30.23 1024 5 8 0.02 0.51
6:55 am 06:55 Cloudy with Light Rain 39 4 39 3.8 99 99 Calm 30.22 1024 5 8 0.03 0.76
7:15 am 07:15 Cloudy with Light Rain 39 4.1 39 4 99 99 Calm 30.22 1024 5 8 0.00 0.00
7:35 am 07:35 Cloudy with Rain 39 4.1 39 4 99 99 Calm 30.21 1023 3 4 0.00 0.00
7:55 am 07:55 Cloudy with Light Rain 42 5.5 42 5.4 99 99 S 7 11 30.20 1023 5 8 0.00 0.00
8:15 am 08:15 Cloudy with Light Rain 42 5.7 41 5.2 97 97 S 6 9 30.19 1022 7 11 0.00 0.00
8:35 am 08:35 Cloudy with Light Rain 42 5.5 40 4.4 93 93 S 7 11 30.19 1022 10 16 0.00 0.00
8:55 am 08:55 Cloudy with Light Rain 42 5.6 40 4.5 93 93 SSW 6 9 30.19 1022 10 16 0.00 0.00
9:15 am 09:15 Cloudy with Light Rain 42 5.5 40 4.4 93 93 S 6 9 30.17 1022 7 11 0.01 0.25
9:35 am 09:35 Cloudy with Light Rain 42 5.6 40 4.7 94 94 SW 6 9 30.17 1022 7 11 0.01 0.25
9:55 am 09:55 Cloudy with Light Rain 42 5.6 40 4.6 93 93 SSW 10 17 30.18 1022 5 8 0.01 0.25
10:15 am 10:15 Cloudy with Light Rain 42 5.5 40 4.7 95 95 SSW 8 13 30.16 1021 7 11 0.00 0.00
10:35 am 10:35 Cloudy with Rain 42 5.6 40 4.7 94 94 SSW 3 6 30.15 1021 5 8 0.00 0.00
10:55 am 10:55 Cloudy with Light Rain 42 5.5 40 4.7 95 95 SSW 9 15 30.15 1021 7 11 0.00 0.00
11:15 am 11:15 Cloudy with Rain 42 5.4 41 4.9 97 97 SW 7 11 30.15 1021 5 8 0.00 0.00
11:35 am 11:35 Cloudy with Light Rain 42 5.4 41 5.1 98 98 SSW 6 9 30.13 1020 4 6 0.00 0.00
11:55 am 11:55 Cloudy with Light Rain 42 5.4 41 5.2 99 99 SSW 5 7 30.11 1020 4 6 0.00 0.00
12:15 pm 12:15 Cloudy with Light Rain 42 5.5 42 5.3 99 99 SW 6 9 30.10 1019 4 6 0.00 0.00
12:35 pm 12:35 Cloudy with Light Rain 42 5.6 42 5.4 99 99 WSW 5 7 30.09 1019 4 6 0.00 0.00
12:55 pm 12:55 Cloudy with Light Rain 43 5.9 42 5.8 99 99 WSW 5 7 30.08 1019 4 6 0.00 0.00
1:15 pm 13:15 Cloudy with Drizzle 43 6.3 43 6.1 99 99 WSW 7 11 30.07 1018 10 16 0.00 0.00
1:35 pm 13:35 Cloudy with Mist and Fog 44 6.4 43 6.1 98 98 WSW 9 15 30.07 1018 7 11 0.00 0.00
1:55 pm 13:55 Cloudy with Mist and Fog 44 6.5 43 6.2 98 98 WSW 9 15 30.06 1018 3 4 0.00 0.00
2:15 pm 14:15 Cloudy with Mist and Fog 44 6.6 44 6.4 99 99 WSW 8 13 30.06 1018 5 8 0.00 0.00
2:35 pm 14:35 Cloudy with Mist and Fog 44 6.6 44 6.4 99 99 SW 9 15 30.05 1018 4 6 0.00 0.00
2:55 pm 14:55 Cloudy with Mist and Fog 44 6.8 44 6.6 99 99 WSW 9 15 30.04 1017 2 3 0.00 0.00
3:15 pm 15:15 Cloudy with Mist and Fog 44 6.7 44 6.6 99 99 WSW 9 15 30.04 1017 2 3 0.00 0.00
3:35 pm 15:35 Cloudy with Mist and Fog 44 6.8 44 6.7 99 99 WSW 8 13 30.03 1017 3 4 0.00 0.00
3:55 pm 15:55 Cloudy with Mist and Fog 44 6.9 44 6.8 99 99 WSW 9 15 30.03 1017 5 8 0.00 0.00
4:15 pm 16:15 Cloudy with Mist and Fog 44 6.9 44 6.8 99 99 WSW 8 13 30.03 1017 5 8 0.00 0.00
4:35 pm 16:35 Cloudy with Mist and Fog 44 6.9 44 6.8 99 99 WSW 8 13 30.04 1017 3 5 0.00 0.00
4:55 pm 16:55 Cloudy with Mist and Fog 44 6.9 44 6.8 99 99 WSW 9 15 30.05 1018 3 4 0.00 0.00
5:15 pm 17:15 Cloudy with Mist and Fog 45 7 44 6.9 99 99 WSW 7 11 30.06 1018 3 4 0.00 0.00
5:35 pm 17:35 Cloudy with Mist and Fog 45 7.1 45 7 99 99 WSW 5 7 30.06 1018 2 3 0.00 0.00
5:55 pm 17:55 Cloudy with Mist and Fog 45 7.1 45 7 99 99 W 7 11 30.06 1018 4 6 0.00 0.00
6:15 pm 18:15 Cloudy with Mist and Fog 45 7.2 45 7.1 99 99 WSW 7 11 30.06 1018 5 8 0.00 0.00
6:35 pm 18:35 Cloudy with Mist and Fog 45 7.2 45 7 99 99 WSW 8 13 30.06 1018 5 8 0.01 0.25
6:55 pm 18:55 Cloudy with Mist and Fog 45 7.1 45 7 99 99 WSW 7 11 30.06 1018 5 8 0.01 0.25
7:15 pm 19:15 Cloudy with Mist and Fog 45 7.1 45 7 99 99 WSW 8 13 30.06 1018 5 8 0.00 0.00
7:35 pm 19:35 Cloudy with Mist and Fog 44 6.7 44 6.5 99 99 WSW 6 9 30.07 1018 5 8 0.00 0.00
7:55 pm 19:55 Cloudy with Mist and Fog 44 6.5 44 6.4 99 99 WSW 7 11 30.06 1018 5 8 0.00 0.00
8:15 pm 20:15 Mostly Cloudy with Mist and Fog 43 6.2 43 6 99 99 WSW 7 11 30.06 1018 5 8 0.00 0.00
8:35 pm 20:35 Mostly Cloudy with Mist and Fog 43 6.3 43 6.2 99 99 W 7 11 30.07 1018 5 8 0.00 0.00
8:55 pm 20:55 Cloudy with Mist and Fog 43 6.3 43 6.2 99 99 WSW 8 13 30.07 1018 5 8 0.00 0.00
9:15 pm 21:15 Cloudy with Mist and Fog 44 6.4 43 6.2 99 99 WSW 8 13 30.06 1018 7 11 0.00 0.00
9:35 pm 21:35 Cloudy with Mist and Fog 43 6.3 43 6 98 98 WSW 7 11 30.06 1018 7 11 0.00 0.00
9:55 pm 21:55 Cloudy with Mist and Fog 43 6.3 43 5.9 97 97 WSW 8 13 30.06 1018 7 11 0.00 0.00
10:15 pm 22:15 Cloudy with Mist and Fog 44 6.6 43 6.2 97 97 WSW 8 13 30.06 1018 7 11 0.00 0.00
10:35 pm 22:35 Cloudy with Mist and Fog 44 6.6 43 6.2 97 97 WSW 8 13 30.05 1018 7 11 0.00 0.00
10:55 pm 22:55 Cloudy with Mist and Fog 44 6.6 43 6.2 97 97 WSW 8 13 30.05 1018 7 11 0.00 0.00
11:15 pm 23:15 Cloudy 44 6.8 43 6.3 97 97 W 8 13 30.06 1018 7 11 0.00 0.00
11:35 pm 23:35 Cloudy 44 6.8 43 6.2 96 96 W 9 15 30.05 1018 7 11 0.00 0.00
11:55 pm 23:55 Mostly Cloudy 44 6.7 43 5.9 95 95 WNW 9 15 30.06 1018 10 16 0.00 0.00

Powered by AerisWeather